| time (UTC) | temp F | wind direction | speed MPH | gust MPH | rain 1hr in | rain 24hr in | rain mn in | humidity % | barometer mb |
| 20260506181540 | 61 | 23 | 4.0 | 7.0 | 0.00 | 0.00 | 0.00 | 67 | 1006.8 |
| 20260506180532 | 62 | 18 | 7.0 | 13.0 | 0.00 | 0.00 | 0.00 | 66 | 1006.7 |
| 20260506175529 | 63 | 55 | 4.0 | 11.0 | 0.00 | 0.00 | 0.00 | 63 | 1006.6 |
| 20260506174526 | 63 | 21 | 6.0 | 13.0 | 0.00 | 0.00 | 0.00 | 62 | 1006.5 |
| 20260506173518 | 64 | 333 | 4.0 | 13.0 | 0.00 | 0.00 | 0.00 | 59 | 1006.1 |
| 20260506172515 | 64 | 20 | 5.0 | 9.0 | 0.00 | 0.00 | 0.00 | 56 | 1006.1 |
| 20260506171607 | 66 | 55 | 2.0 | 6.0 | 0.00 | 0.01 | 0.00 | 54 | 1006.2 |
| 20260506170604 | 66 | 159 | 1.0 | 4.0 | 0.00 | 0.01 | 0.00 | 55 | 1006.1 |
| 20260506165557 | 66 | 100 | 1.0 | 4.0 | 0.00 | 0.01 | 0.00 | 54 | 1006.0 |
| 20260506164554 | 65 | 100 | 2.0 | 6.0 | 0.00 | 0.02 | 0.00 | 55 | 1006.0 |
| 20260506163551 | 65 | 102 | 3.0 | 9.0 | 0.00 | 0.02 | 0.00 | 55 | 1005.9 |
| 20260506162543 | 65 | 104 | 3.0 | 11.0 | 0.00 | 0.04 | 0.00 | 55 | 1005.9 |
| 20260506161540 | 67 | 118 | 2.0 | 6.0 | 0.00 | 0.04 | 0.00 | 54 | 1005.8 |
| 20260506160533 | 67 | 115 | 2.0 | 11.0 | 0.00 | 0.05 | 0.00 | 54 | 1005.7 |
| 20260506155530 | 66 | 71 | 3.0 | 11.0 | 0.00 | 0.24 | 0.00 | 55 | 1005.7 |
| 20260506154527 | 66 | 153 | 3.0 | 11.0 | 0.00 | 0.33 | 0.00 | 55 | 1005.6 |
| 20260506153519 | 68 | 119 | 4.0 | 9.0 | 0.00 | 0.33 | 0.00 | 52 | 1005.7 |
| 20260506152517 | 68 | 87 | 4.0 | 11.0 | 0.00 | 0.33 | 0.00 | 49 | 1005.6 |
| 20260506151608 | 69 | 149 | 3.0 | 8.0 | 0.00 | 0.33 | 0.00 | 49 | 1005.7 |
| 20260506150605 | 69 | 139 | 2.0 | 8.0 | 0.00 | 0.33 | 0.00 | 48 | 1005.7 |
| 20260506145603 | 68 | 119 | 4.0 | 7.0 | 0.00 | 0.33 | 0.00 | 49 | 1005.7 |
| 20260506144554 | 68 | 99 | 5.0 | 11.0 | 0.00 | 0.33 | 0.00 | 47 | 1005.9 |
| 20260506143551 | 69 | 108 | 4.0 | 11.0 | 0.00 | 0.33 | 0.00 | 46 | 1005.9 |
| 20260506142543 | 68 | 127 | 4.0 | 11.0 | 0.00 | 0.33 | 0.00 | 48 | 1006.0 |
| 20260506141540 | 68 | 129 | 5.0 | 11.0 | 0.00 | 0.33 | 0.00 | 48 | 1006.1 |
| 20260506140533 | 68 | 132 | 5.0 | 9.0 | 0.00 | 0.33 | 0.00 | 46 | 1006.2 |
| 20260506135530 | 68 | 142 | 3.0 | 9.0 | 0.00 | 0.33 | 0.00 | 45 | 1006.3 |
| 20260506134528 | 67 | 170 | 5.0 | 9.0 | 0.00 | 0.33 | 0.00 | 44 | 1006.3 |
| 20260506133519 | 69 | 105 | 2.0 | 9.0 | 0.00 | 0.33 | 0.00 | 43 | 1006.3 |
| 20260506132516 | 68 | 196 | 3.0 | 11.0 | 0.00 | 0.33 | 0.00 | 44 | 1006.4 |
| 20260506131608 | 67 | 133 | 7.0 | 11.0 | 0.00 | 0.33 | 0.00 | 44 | 1006.5 |
| 20260506130605 | 69 | 143 | 3.0 | 11.0 | 0.00 | 0.33 | 0.00 | 44 | 1006.6 |
| 20260506125603 | 67 | 195 | 4.0 | 14.0 | 0.00 | 0.33 | 0.00 | 47 | 1006.6 |
| 20260506124555 | 67 | 154 | 6.0 | 14.0 | 0.00 | 0.33 | 0.00 | 46 | 1006.6 |
| 20260506123552 | 68 | 162 | 3.0 | 11.0 | 0.00 | 0.33 | 0.00 | 45 | 1006.7 |
| 20260506122544 | 67 | 121 | 4.0 | 11.0 | 0.00 | 0.33 | 0.00 | 47 | 1006.7 |
| 20260506121541 | 66 | 123 | 4.0 | 11.0 | 0.00 | 0.33 | 0.00 | 48 | 1006.8 |
| 20260506120539 | 68 | 130 | 5.0 | 11.0 | 0.00 | 0.33 | 0.00 | 44 | 1006.8 |
| 20260506115530 | 67 | 103 | 4.0 | 11.0 | 0.00 | 0.33 | 0.00 | 46 | 1006.8 |
| 20260506114528 | 66 | 176 | 3.0 | 7.0 | 0.00 | 0.33 | 0.00 | 46 | 1007.0 |
| 20260506113519 | 66 | 100 | 3.0 | 8.0 | 0.00 | 0.33 | 0.00 | 48 | 1006.9 |
| 20260506112516 | 65 | 143 | 3.0 | 6.0 | 0.00 | 0.33 | 0.00 | 49 | 1007.1 |
| 20260506111610 | 66 | 122 | 2.0 | 11.0 | 0.00 | 0.33 | 0.00 | 51 | 1007.3 |
| 20260506110605 | 64 | 129 | 3.0 | 8.0 | 0.00 | 0.33 | 0.00 | 54 | 1007.4 |
| 20260506105603 | 64 | 127 | 3.0 | 8.0 | 0.00 | 0.33 | 0.00 | 56 | 1007.4 |
| 20260506104555 | 65 | 121 | 1.0 | 4.0 | 0.00 | 0.33 | 0.00 | 55 | 1007.4 |
| 20260506103552 | 64 | 118 | 1.0 | 4.0 | 0.00 | 0.33 | 0.00 | 58 | 1007.5 |
| 20260506102544 | 63 | 277 | 2.0 | 4.0 | 0.00 | 0.33 | 0.00 | 57 | 1007.6 |
| 20260506101541 | 62 | 130 | 3.0 | 8.0 | 0.00 | 0.33 | 0.00 | 58 | 1007.6 |
| 20260506100539 | 61 | 114 | 3.0 | 7.0 | 0.00 | 0.33 | 0.00 | 58 | 1007.6 |
| 20260506095531 | 61 | 141 | 3.0 | 6.0 | 0.00 | 0.33 | 0.00 | 59 | 1007.9 |
| 20260506094529 | 60 | 135 | 2.0 | 4.0 | 0.00 | 0.33 | 0.00 | 61 | 1007.9 |
| 20260506093520 | 59 | 176 | 4.0 | 8.0 | 0.00 | 0.33 | 0.00 | 61 | 1007.9 |
| 20260506092517 | 59 | 215 | 3.0 | 6.0 | 0.00 | 0.33 | 0.00 | 61 | 1008.0 |
| 20260506091515 | 59 | 174 | 3.0 | 9.0 | 0.00 | 0.33 | 0.00 | 60 | 1007.8 |
| 20260506090606 | 59 | 179 | 4.0 | 8.0 | 0.00 | 0.33 | 0.00 | 61 | 1007.7 |
| 20260506085604 | 59 | 208 | 4.0 | 9.0 | 0.00 | 0.33 | 0.00 | 61 | 1007.7 |
| 20260506084555 | 59 | 206 | 3.0 | 8.0 | 0.00 | 0.33 | 0.00 | 60 | 1007.8 |
| 20260506083553 | 58 | 213 | 4.0 | 7.0 | 0.00 | 0.33 | 0.00 | 60 | 1007.6 |
| 20260506082544 | 58 | 146 | 0.0 | 4.0 | 0.00 | 0.33 | 0.00 | 64 | 1007.6 |
| 20260506081541 | 57 | 214 | 3.0 | 7.0 | 0.00 | 0.33 | 0.00 | 64 | 1007.5 |
| 20260506080539 | 56 | 229 | 5.0 | 11.0 | 0.00 | 0.33 | 0.00 | 64 | 1007.5 |
| 20260506073520 | 54 | 230 | 4.0 | 9.0 | 0.00 | 0.33 | 0.00 | 70 | 1007.3 |
| 20260506072517 | 54 | 217 | 4.0 | 8.0 | 0.00 | 0.33 | 0.00 | 72 | 1007.2 |
| 20260506071515 | 53 | 228 | 6.0 | 11.0 | 0.00 | 0.33 | 0.00 | 74 | 1007.2 |
| 20260506070607 | 53 | 214 | 7.0 | 14.0 | 0.00 | 0.33 | 0.00 | 74 | 1007.2 |
| 20260506061542 | 52 | 242 | 4.0 | 7.0 | 0.00 | 0.33 | 0.00 | 76 | 1007.2 |
| 20260506060540 | 52 | 227 | 3.0 | 4.0 | 0.00 | 0.33 | 0.00 | 77 | 1007.1 |
| 20260506050607 | 50 | 248 | 1.0 | 6.0 | 0.00 | 0.33 | 0.00 | 80 | 1006.6 |
| 20260506044556 | 50 | 244 | 2.0 | 4.0 | 0.00 | 0.33 | 0.00 | 81 | 1006.5 |
| 20260506043554 | 49 | 243 | 2.0 | 4.0 | 0.00 | 0.33 | 0.00 | 82 | 1006.5 |
| 20260506042551 | 49 | 218 | 2.0 | 4.0 | 0.00 | 0.33 | 0.00 | 82 | 1006.5 |
| 20260506041542 | 50 | 0.0 | 2.0 | 0.00 | 0.33 | 0.00 | 81 | 1006.3 | |
| 20260506040540 | 50 | 206 | 1.0 | 4.0 | 0.00 | 0.33 | 0.00 | 80 | 1006.3 |
| 20260506035531 | 51 | 248 | 1.0 | 4.0 | 0.00 | 0.33 | 0.00 | 78 | 1006.2 |
| 20260506034529 | 50 | 253 | 2.0 | 4.0 | 0.00 | 0.33 | 0.00 | 80 | 1006.1 |
| 20260506033520 | 51 | 274 | 2.0 | 4.0 | 0.00 | 0.33 | 0.00 | 80 | 1006.2 |
| 20260506032517 | 51 | 0.0 | 0.0 | 0.00 | 0.33 | 0.00 | 80 | 1006.2 | |
| 20260506031515 | 51 | 263 | 2.0 | 4.0 | 0.00 | 0.33 | 0.00 | 79 | 1006.2 |
| 20260506030607 | 52 | 290 | 1.0 | 4.0 | 0.00 | 0.33 | 0.00 | 77 | 1006.3 |
| 20260506025605 | 53 | 292 | 4.0 | 7.0 | 0.00 | 0.33 | 0.00 | 75 | 1006.2 |
| 20260506024556 | 53 | 258 | 3.0 | 6.0 | 0.00 | 0.33 | 0.00 | 75 | 1006.2 |
| 20260506023554 | 53 | 260 | 3.0 | 7.0 | 0.00 | 0.33 | 0.00 | 74 | 1006.3 |
| 20260506022551 | 53 | 267 | 2.0 | 4.0 | 0.00 | 0.33 | 0.00 | 77 | 1006.1 |
| 20260506021543 | 52 | 293 | 0.0 | 2.0 | 0.00 | 0.33 | 0.00 | 77 | 1006.1 |
| 20260506020541 | 53 | 339 | 1.0 | 4.0 | 0.00 | 0.33 | 0.00 | 76 | 1006.0 |
| 20260506015532 | 52 | 315 | 2.0 | 4.0 | 0.00 | 0.33 | 0.00 | 77 | 1005.8 |
| 20260506014530 | 53 | 309 | 2.0 | 6.0 | 0.00 | 0.33 | 0.00 | 76 | 1005.9 |
| 20260506013527 | 52 | 0.0 | 2.0 | 0.00 | 0.33 | 0.00 | 79 | 1005.9 | |
| 20260506012519 | 52 | 135 | 0.0 | 2.0 | 0.00 | 0.33 | 0.00 | 80 | 1006.0 |
| 20260506011516 | 53 | 113 | 1.0 | 2.0 | 0.00 | 0.33 | 0.00 | 79 | 1006.0 |
| 20260506010608 | 52 | 113 | 0.0 | 2.0 | 0.00 | 0.33 | 0.00 | 79 | 1006.0 |
| 20260506005606 | 52 | 127 | 1.0 | 6.0 | 0.00 | 0.33 | 0.00 | 82 | 1006.1 |
| 20260506004604 | 51 | 0.0 | 0.0 | 0.00 | 0.33 | 0.00 | 85 | 1006.1 | |
| 20260506003555 | 51 | 211 | 1.0 | 2.0 | 0.00 | 0.33 | 0.00 | 85 | 1006.3 |
| 20260506002552 | 52 | 180 | 1.0 | 2.0 | 0.00 | 0.33 | 0.00 | 84 | 1006.2 |
| 20260506001544 | 53 | 105 | 1.0 | 4.0 | 0.00 | 0.33 | 0.00 | 85 | 1006.4 |
| 20260506000542 | 53 | 0.0 | 0.0 | 0.00 | 0.33 | 0.00 | 81 | 1006.3 | |
| 20260505235539 | 53 | 283 | 1.0 | 2.0 | 0.00 | 0.33 | 0.33 | 82 | 1006.3 |
| 20260505234531 | 53 | 262 | 1.0 | 4.0 | 0.00 | 0.33 | 0.33 | 84 | 1006.4 |
| 20260505233528 | 52 | 302 | 1.0 | 2.0 | 0.00 | 0.33 | 0.33 | 87 | 1006.4 |
| 20260505232520 | 52 | 0 | 0.0 | 2.0 | 0.00 | 0.33 | 0.33 | 88 | 1006.5 |
| 20260505231518 | 52 | 230 | 1.0 | 2.0 | 0.00 | 0.33 | 0.33 | 88 | 1006.3 |
| 20260505230515 | 53 | 248 | 0.0 | 2.0 | 0.00 | 0.33 | 0.33 | 86 | 1006.3 |
| 20260505225607 | 53 | 297 | 1.0 | 2.0 | 0.00 | 0.33 | 0.33 | 85 | 1006.1 |
| 20260505224604 | 53 | 230 | 1.0 | 2.0 | 0.00 | 0.33 | 0.33 | 84 | 1006.5 |
| 20260505223557 | 54 | 208 | 1.0 | 2.0 | 0.00 | 0.33 | 0.33 | 81 | 1006.7 |
| 20260505222554 | 55 | 231 | 1.0 | 2.0 | 0.00 | 0.33 | 0.33 | 80 | 1006.8 |
| 20260505221551 | 54 | 267 | 2.0 | 4.0 | 0.00 | 0.33 | 0.33 | 82 | 1006.8 |
| 20260505220543 | 54 | 236 | 2.0 | 2.0 | 0.00 | 0.33 | 0.33 | 81 | 1007.2 |
| 20260505215540 | 54 | 229 | 3.0 | 4.0 | 0.00 | 0.33 | 0.33 | 80 | 1007.1 |
| 20260505214533 | 54 | 225 | 1.0 | 4.0 | 0.00 | 0.33 | 0.33 | 80 | 1007.1 |
| 20260505213530 | 54 | 228 | 1.0 | 4.0 | 0.00 | 0.33 | 0.33 | 82 | 1007.2 |
| 20260505212527 | 53 | 234 | 3.0 | 6.0 | 0.00 | 0.33 | 0.33 | 84 | 1007.2 |
| 20260505211519 | 53 | 233 | 3.0 | 4.0 | 0.00 | 0.33 | 0.33 | 85 | 1007.2 |
| 20260505210516 | 53 | 189 | 2.0 | 4.0 | 0.00 | 0.33 | 0.33 | 83 | 1006.9 |
| 20260505205608 | 54 | 233 | 4.0 | 7.0 | 0.00 | 0.33 | 0.33 | 83 | 1006.9 |
| 20260505204605 | 54 | 229 | 3.0 | 4.0 | 0.00 | 0.33 | 0.33 | 82 | 1006.7 |
| 20260505203603 | 54 | 248 | 2.0 | 4.0 | 0.00 | 0.33 | 0.33 | 83 | 1006.8 |
| 20260505203036 | 54 | 236 | 2.0 | 4.0 | 0.00 | 0.33 | 0.33 | 83 | 1006.7 |
| 20260505202034 | 53 | 234 | 2.0 | 4.0 | 0.00 | 0.35 | 0.33 | 85 | 1006.6 |
| 20260505201031 | 53 | 190 | 1.0 | 4.0 | 0.00 | 0.39 | 0.33 | 85 | 1006.5 |
| 20260505200029 | 54 | 244 | 1.0 | 2.0 | 0.00 | 0.39 | 0.33 | 84 | 1006.2 |
| 20260505195026 | 54 | 224 | 1.0 | 2.0 | 0.00 | 0.39 | 0.33 | 83 | 1005.9 |
| 20260505194023 | 54 | 0.0 | 0.0 | 0.00 | 0.40 | 0.33 | 82 | 1005.7 | |
| 20260505193021 | 55 | 243 | 1.0 | 2.0 | 0.00 | 0.40 | 0.33 | 79 | 1005.6 |
| 20260505192018 | 55 | 295 | 3.0 | 6.0 | 0.00 | 0.40 | 0.33 | 79 | 1005.6 |
| 20260505191016 | 55 | 255 | 4.0 | 8.0 | 0.00 | 0.40 | 0.33 | 81 | 1005.6 |
| 20260505190113 | 55 | 248 | 3.0 | 4.0 | 0.00 | 0.40 | 0.33 | 81 | 1005.8 |
| 20260505185110 | 54 | 261 | 2.0 | 4.0 | 0.00 | 0.40 | 0.33 | 83 | 1005.7 |
| 20260505184107 | 54 | 241 | 2.0 | 4.0 | 0.00 | 0.40 | 0.33 | 84 | 1005.6 |
| 20260505183104 | 54 | 237 | 3.0 | 6.0 | 0.00 | 0.40 | 0.33 | 84 | 1005.6 |